Location: Neuvy Saint Sepulchre
(46.5953°N, 1.8122°E)
Time: 16:18:16
(UTC+02:00)

ISS - Pass Details

Date: 09 May 2026
Orbit: 414 x 424 km, 51.6° (Epoch: 21 May)

Event Time Altitude Azimuth Distance (km) Brightness Sun altitude
Rises 23:14:46 0° 248° (WSW) 2,342 0.3 -17.0°
Reaches altitude 10° 23:16:51 10° 250° (WSW) 1,483 -0.8 -17.3°
Maximum altitude 23:20:11 74° 336° (NNW) 435 -3.6 -17.6°
Drops below altitude 10° 23:23:32 10° 62° (ENE) 1,492 -1.1 -18.0°
Enters shadow 23:24:19 - 63° (ENE) 1,816 -0.6 -18.0°
